EW1994 Weather Reports


Display with metric or nautical units.
time (UTC)temp
F
wind
direction
speed
MPH
gust
MPH
rain 1hr
in
rain 24hr
in
rain mn
in
humidity
%
barometer
mb
20260901074535 55 91 0.0 0.0 0.00 0.00 0.00 90 1009.2
20260901073029 55 91 0.0 0.0 0.00 0.00 0.00 89 1009.2
20260901071532 55 91 0.0 0.0 0.00 0.00 0.00 89 1009.2
20260901070031 56 91 0.0 0.0 0.00 0.00 0.00 89 1009.1
20260901064521 56 91 0.0 0.0 0.00 0.00 0.00 89 1009.3
20260901063024 56 91 0.0 0.0 0.00 0.00 0.00 88 1009.3
20260901061525 57 91 0.0 0.0 0.00 0.00 0.00 88 1009.4
20260901060020 57 91 0.0 0.0 0.00 0.00 0.00 88 1009.4
20260901054519 57 91 0.0 0.0 0.00 0.00 0.00 87 1009.4
20260901053020 57 91 0.0 0.0 0.00 0.00 0.00 87 1009.5
20260901051520 58 91 0.0 0.0 0.00 0.00 0.00 87 1009.4
20260901050025 58 91 0.0 0.0 0.00 0.00 0.00 86 1009.6
20260901044537 59 91 0.0 0.0 0.00 0.00 0.00 86 1009.5
20260901043016 59 91 0.0 0.0 0.00 0.00 0.00 86 1009.4
20260901041527 60 91 0.0 0.0 0.00 0.00 0.00 85 1009.6
20260901040028 60 91 0.0 0.0 0.00 0.00 0.00 84 1009.5
20260901034532 61 91 0.0 0.0 0.00 0.00 0.00 84 1009.4
20260901033047 62 91 0.0 0.0 0.00 0.00 0.00 83 1009.2
20260901031517 62 91 0.0 0.0 0.00 0.00 0.00 82 1009.1
20260901030034 63 91 0.0 0.0 0.00 0.00 0.00 80 1008.9
20260901024528 64 91 0.0 0.0 0.00 0.00 0.00 80 1008.9
20260901023024 66 91 0.0 0.0 0.00 0.00 0.00 79 1008.9
20260901021531 67 91 0.0 0.0 0.00 0.00 0.00 77 1008.8
20260901020031 68 91 0.0 0.0 0.00 0.00 0.00 74 1008.9
20260901014526 68 91 0.0 0.0 0.00 0.00 0.00 73 1008.8
20260901013041 69 91 0.0 0.0 0.00 0.00 0.00 71 1008.7
20260901011531 69 91 0.0 1.0 0.00 0.00 0.00 70 1008.9
20260901010031 70 91 0.0 1.0 0.00 0.00 0.00 68 1008.8
20260901004527 71 94 0.0 0.0 0.00 0.00 0.00 64 1008.9
20260901003038 72 94 0.0 1.0 0.00 0.00 0.00 63 1008.9
20260901001527 74 195 0.0 3.0 0.00 0.00 0.00 61 1009.1
20260901000033 74 57 0.0 3.0 0.00 0.00 0.00 59 1009.2
20260831234527 73 74 0.0 2.0 0.00 0.00 0.00 61 1009.3
20260831233028 73 98 0.0 2.0 0.00 0.00 0.00 64 1009.5
20260831231529 74 53 0.0 2.0 0.00 0.00 0.00 63 1009.6
20260831230029 74 159 0.0 3.0 0.00 0.00 0.00 59 1009.8
20260831224530 74 134 0.0 5.0 0.00 0.00 0.00 61 1010.0
20260831223037 73 145 0.0 6.0 0.00 0.00 0.00 60 1010.0
20260831221529 74 343 0.0 4.0 0.00 0.00 0.00 62 1010.1
20260831220031 73 312 0.0 2.0 0.00 0.00 0.00 61 1010.2
20260831214515 73 65 1.0 4.0 0.00 0.00 0.00 62 1010.4
20260831213019 73 123 0.0 3.0 0.00 0.00 0.00 61 1010.6
20260831211536 73 284 0.0 3.0 0.00 0.00 0.00 61 1010.8
20260831210031 73 76 0.0 3.0 0.00 0.00 0.00 63 1011.1
20260831204511 72 30 0.0 2.0 0.00 0.00 0.00 65 1011.2
20260831203027 72 71 0.0 4.0 0.00 0.00 0.00 64 1011.4
20260831201526 71 20 0.0 3.0 0.00 0.00 0.00 63 1011.6
20260831200029 70 109 0.0 2.0 0.00 0.00 0.00 66 1011.9
20260831194538 70 47 0.0 3.0 0.00 0.00 0.00 66 1012.1
20260831193016 69 208 0.0 2.0 0.00 0.00 0.00 69 1012.2
20260831191520 68 91 0.0 7.0 0.00 0.00 0.00 67 1012.5
20260831190026 66 230 0.0 2.0 0.00 0.00 0.00 71 1012.9
20260831184531 67 291 0.0 3.0 0.00 0.00 0.00 72 1013.0
20260831183013 66 84 0.0 2.0 0.00 0.00 0.00 73 1013.2
20260831181516 65 71 0.0 3.0 0.00 0.00 0.00 75 1013.4
20260831180024 64 55 0.0 3.0 0.00 0.00 0.00 75 1013.5
20260831174529 63 164 0.0 1.0 0.00 0.00 0.00 77 1013.6
20260831173033 62 81 0.0 2.0 0.00 0.00 0.00 80 1013.8
20260831171515 61 67 0.0 1.0 0.00 0.00 0.00 83 1013.9
20260831170019 60 67 0.0 2.0 0.00 0.00 0.00 85 1014.0
20260831164529 58 30 0.0 2.0 0.00 0.00 0.00 87 1014.2
20260831163032 58 94 0.0 2.0 0.00 0.00 0.00 88 1014.3
20260831161534 56 94 0.0 1.0 0.00 0.00 0.00 89 1014.4
20260831160018 56 103 0.0 2.0 0.00 0.00 0.00 92 1014.4
20260831154548 54 103 0.0 1.0 0.00 0.00 0.00 94 1014.5
20260831153027 52 103 0.0 0.0 0.00 0.00 0.00 94 1014.5
20260831151532 50 103 0.0 0.0 0.00 0.00 0.00 93 1014.7
20260831150037 49 103 0.0 0.0 0.00 0.00 0.00 93 1014.7
20260831144517 49 103 0.0 0.0 0.00 0.00 0.00 93 1014.6
20260831143024 49 103 0.0 0.0 0.00 0.00 0.00 93 1014.5
20260831141528 49 103 0.0 0.0 0.00 0.00 0.00 93 1014.4
20260831140035 49 103 0.0 0.0 0.00 0.00 0.00 93 1014.5
20260831134535 48 103 0.0 0.0 0.00 0.00 0.00 93 1014.5
20260831133032 48 103 0.0 0.0 0.00 0.00 0.00 93 1014.5
20260831131529 48 103 0.0 0.0 0.00 0.00 0.00 93 1014.5
20260831130030 48 103 0.0 0.0 0.00 0.00 0.00 93 1014.6
20260831124531 49 103 0.0 0.0 0.00 0.00 0.00 92 1014.7
20260831123032 49 103 0.0 0.0 0.00 0.00 0.00 92 1014.9
20260831121525 49 103 0.0 0.0 0.00 0.00 0.00 92 1014.9
20260831120038 49 103 0.0 0.0 0.00 0.00 0.00 92 1015.1
20260831114532 49 103 0.0 0.0 0.00 0.00 0.00 92 1015.2
20260831113035 50 103 0.0 0.0 0.00 0.00 0.00 92 1015.2
20260831111532 50 103 0.0 0.0 0.00 0.00 0.00 92 1015.2
20260831110035 50 103 0.0 0.0 0.00 0.00 0.00 92 1015.4
20260831104535 50 103 0.0 0.0 0.00 0.01 0.00 92 1015.5
20260831103034 50 103 0.0 0.0 0.00 0.01 0.00 92 1015.7
20260831101534 51 103 0.0 0.0 0.00 0.01 0.00 92 1015.7
20260831100034 51 103 0.0 0.0 0.00 0.01 0.00 92 1015.8
20260831094506 51 103 0.0 0.0 0.00 0.01 0.00 92 1016.2
20260831093008 51 103 0.0 0.0 0.00 0.01 0.00 92 1016.2
20260831091533 51 103 0.0 0.0 0.00 0.01 0.00 91 1016.4
20260831090018 52 103 0.0 0.0 0.00 0.01 0.00 91 1016.5
20260831084503 52 103 0.0 0.0 0.00 0.01 0.00 91 1016.5
20260831083007 52 103 0.0 0.0 0.00 0.01 0.00 91 1016.7
20260831081529 52 103 0.0 0.0 0.00 0.01 0.00 91 1016.9
20260831080054 52 103 0.0 0.0 0.00 0.01 0.00 91 1017.0